STARLINK-32695, 62866

Orbit data source: Space-Track

STARLINK-32695, 62866 is a payload satellite owned by SpaceX/Seattle (US) in LEO that was launched on Sat, 01 Feb 2025 UTC via an FALCON 9 launch vehicle from the Air Force Western Test Range (AFWTR). Payload-class satellites include a variety of spacecraft equipped with specific instruments for various scientific and technological missions. These include communications satellites like Starlink; space stations such as the ISS; scientific satellites like the Hubble; Earth observation satellites from companies like Planet Labs, Umbra, and HawkEye 360; GPS; miniature CubeSats for education and research; and military/defense satellites.

Loading next visibility...
Identifier
62866, 2025-022N
Orbit
LEO
Country
Flag of USUS
Related business
Manufacturer
SpaceX/Seattle
Mission
Operational Commercial Communications
Bus & Motor
STARLINK V2M, Unknown motor
Mass
730 kg wet, ~700 kg dry
Launch date (UTC)
2025-02-01 (1 year ago)
Launch vehicle
FALCON 9
Launch site
Air Force Western Test Range (AFWTR)
Object type
Payload
Rocket body
Debris
Shape & HBR
Box + 2 Pan, 17.7 m
Radar Cross Section
33.884 m², Large (>1 m²)

Expand to show TLE details & history
Last TLE update: 7 hours ago

TLE from 7 hours ago
0 STARLINK-32695
1 62866U 25022N   26126.84882051  .00018326  00000-0  55263-3 0  9996
2 62866  53.1607 218.8249 0001168  75.7095 284.4037 15.34374546 70811
Epoch: 2026-05-06T20:22Z
TLE epoch observation values (Epoch: 2026-05-06T20:22:18.092Z)
Latitude
-0.00002°
Longitude
48.54609°
Altitude
463.482 km
Speed
7.636 km/s
True Right ascension
14h 35m 17s
True Declination
0° 00' 00"
Sunlit
Object was in full shadow at epoch
Visualization orbit readout
Latitude
Unknown
Longitude
Unknown
Altitude
Unknown
Speed
Unknown
Apparent Right ascension
Unknown
Apparent Declination
Unknown
Sunlit
N/A
Visualization observer readout
Local Sidereal Time
11:12:44
Azimuth
Unknown
Elevation
Unknown
Doppler factor
Unknown
Orbital elements
Apogee altitude
463.835 km
Perigee altitude
462.237 km
Semi-major axis
6,841.173 km
Eccentricity
0.00012
Inclination
53.1607°
RAAN
218.8249°
Arg. of periapsis
75.7095°
True anomaly
284.39074°
Mean anomaly
284.4037°
Eccentric anomaly
284.39722°
Mean motion
3.83572 °/min
Orbital period
93.85 mins
BSTAR
0.00055263
Loading maneuver chart data...
Computing Atmospheric mass density...
Loading historical data...
Loading historical data...
Loading historical data...
Loading historical data...
Loading historical data...
Loading historical data...
Loading historical data...

Documentation

Showing up to 5 results
|